CW1490 Weather Reports


Display with metric or nautical units.
time (UTC)temp
F
wind
direction
speed
MPH
gust
MPH
rain 1hr
in
rain 24hr
in
rain mn
in
humidity
%
barometer
mb
20260510205006 68 261 6.0 25.0 0.00 0.02 0.01 50 1011.8
20260510204537 69 32 4.0 17.0 0.00 0.02 0.01 49 1011.6
20260510204008 68 300 7.0 17.0 0.00 0.02 0.01 50 1011.6
20260510203507 69 25 6.0 14.0 0.00 0.02 0.01 51 1011.6
20260510203024 68 93 2.0 14.0 0.00 0.03 0.01 55 1011.6
20260510202508 69 335 6.0 13.0 0.00 0.03 0.01 52 1011.6
20260510202010 69 16 5.0 17.0 0.00 0.03 0.01 53 1011.5
20260510201523 69 265 3.0 19.0 0.00 0.04 0.01 59 1011.5
20260510201009 69 325 7.0 19.0 0.00 0.04 0.01 51 1011.5
20260510200506 69 298 5.0 16.0 0.00 0.04 0.01 54 1011.6
20260510200024 69 329 5.0 16.0 0.00 0.05 0.01 56 1011.6
20260510195506 69 36 5.0 17.0 0.00 0.06 0.01 57 1011.7
20260510195010 69 347 3.0 21.0 0.00 0.07 0.01 58 1011.7
20260510194523 69 288 5.0 21.0 0.00 0.07 0.01 57 1011.8
20260510194006 69 254 5.0 26.0 0.00 0.08 0.01 59 1011.7
20260510193506 69 279 8.0 26.0 0.00 0.09 0.01 54 1011.7
20260510193012 70 16 4.0 16.0 0.00 0.09 0.01 56 1011.7
20260510192507 70 302 5.0 16.0 0.00 0.10 0.01 58 1011.8
20260510192007 71 240 7.0 17.0 0.00 0.11 0.01 60 1011.7
20260510191526 70 319 7.0 25.0 0.00 0.11 0.01 56 1011.6
20260510191008 70 234 6.0 25.0 0.00 0.12 0.01 55 1011.7
20260510190506 70 323 5.0 20.0 0.00 0.13 0.01 58 1011.7
20260510190033 70 277 6.0 20.0 0.00 0.13 0.01 58 1011.7
20260510185505 70 339 5.0 14.0 0.00 0.14 0.01 61 1011.6
20260510185003 70 16 3.0 15.0 0.00 0.15 0.01 54 1011.6
20260510184525 71 300 7.0 15.0 0.00 0.15 0.01 55 1011.6
20260510184003 71 231 5.0 11.0 0.00 0.16 0.01 57 1011.6
20260510183504 70 162 3.0 15.0 0.00 0.17 0.01 62 1011.5
20260510183011 70 182 5.0 15.0 0.00 0.17 0.01 58 1011.4
20260510182504 70 291 2.0 11.0 0.00 0.18 0.01 58 1011.4
20260510182006 70 247 4.0 11.0 0.00 0.19 0.01 60 1011.3
20260510181536 69 334 2.0 8.0 0.00 0.19 0.01 68 1011.3
20260510181009 67 245 5.0 8.0 0.00 0.20 0.01 66 1011.4
20260510180506 68 185 3.0 8.0 0.00 0.20 0.01 70 1011.4
20260510180029 67 218 2.0 7.0 0.00 0.21 0.01 72 1011.4
20260510175507 67 231 4.0 7.0 0.00 0.21 0.01 69 1011.5
20260510175007 67 128 3.0 6.0 0.00 0.22 0.01 70 1011.5
20260510174522 66 64 2.0 6.0 0.00 0.23 0.01 70 1011.6
20260510174001 65 158 4.0 6.0 0.00 0.24 0.01 72 1011.6
20260510173503 65 84 2.0 11.0 0.00 0.24 0.01 71 1011.7
20260510173028 65 178 4.0 15.0 0.00 0.25 0.01 73 1011.7
20260510172503 65 171 8.0 16.0 0.00 0.26 0.01 71 1011.8
20260510172003 66 273 6.0 16.0 0.00 0.27 0.01 70 1011.8
20260510171512 66 192 7.0 18.0 0.00 0.27 0.01 70 1011.8
20260510171005 65 192 8.0 18.0 0.00 0.28 0.01 75 1011.8
20260510170505 64 188 6.0 17.0 0.00 0.29 0.01 76 1011.9
20260510170020 64 221 8.0 16.0 0.00 0.29 0.01 76 1012.0
20260510165508 63 215 10.0 16.0 0.00 0.30 0.01 76 1012.1
20260510165013 63 159 7.0 11.0 0.00 0.31 0.01 77 1012.2
20260510164528 63 221 6.0 12.0 0.00 0.32 0.01 78 1012.2
20260510164006 63 202 8.0 12.0 0.00 0.33 0.01 76 1012.2
20260510163513 63 166 5.0 13.0 0.00 0.33 0.01 77 1012.1
20260510163028 63 219 6.0 15.0 0.00 0.34 0.01 76 1012.1
20260510162506 62 232 9.0 15.0 0.00 0.35 0.01 76 1011.9
20260510162003 63 223 6.0 15.0 0.00 0.36 0.01 77 1012.1
20260510161525 63 232 6.0 16.0 0.00 0.36 0.01 77 1011.9
20260510161003 63 237 7.0 16.0 0.00 0.37 0.01 75 1011.9
20260510160505 63 153 5.0 14.0 0.00 0.37 0.01 76 1011.9
20260510160016 64 229 5.0 18.0 0.00 0.38 0.01 75 1012.0
20260510155508 63 210 5.0 18.0 0.00 0.38 0.01 76 1011.9
20260510155006 63 221 7.0 18.0 0.00 0.39 0.01 79 1012.0
20260510154521 63 67 6.0 18.0 0.00 0.40 0.01 77 1012.0
20260510154007 62 273 5.0 18.0 0.00 0.40 0.01 79 1011.9
20260510153508 62 196 6.0 18.0 0.00 0.41 0.01 79 1012.1
20260510153036 62 215 9.0 17.0 0.00 0.41 0.01 81 1012.2
20260510152517 62 232 5.0 19.0 0.00 0.42 0.01 79 1012.1
20260510152011 61 189 5.0 19.0 0.00 0.43 0.01 80 1012.2
20260510151524 61 110 7.0 17.0 0.00 0.44 0.01 79 1012.2
20260510151010 60 182 7.0 17.0 0.00 0.45 0.01 81 1012.2
20260510150510 60 217 11.0 17.0 0.00 0.45 0.01 83 1012.1
20260510150014 59 214 8.0 15.0 0.00 0.46 0.01 81 1012.1
20260510145504 59 148 7.0 13.0 0.00 0.47 0.01 85 1012.0
20260510145005 58 183 6.0 12.0 0.00 0.47 0.01 84 1012.0
20260510144521 58 175 5.0 12.0 0.00 0.48 0.01 86 1012.1
20260510144008 57 173 4.0 12.0 0.00 0.48 0.01 85 1012.3
20260510143513 57 227 5.0 12.0 0.00 0.48 0.01 86 1012.4
20260510143022 57 212 6.0 10.0 0.00 0.48 0.01 86 1012.4
20260510142508 56 168 4.0 13.0 0.00 0.49 0.01 86 1012.4
20260510142010 57 198 6.0 13.0 0.00 0.49 0.01 87 1012.4
20260510141527 57 223 5.0 15.0 0.00 0.49 0.01 88 1012.3
20260510141014 56 236 6.0 15.0 0.00 0.49 0.01 87 1012.3
20260510140510 56 153 6.0 12.0 0.00 0.50 0.01 87 1012.2
20260510140028 56 238 5.0 14.0 0.00 0.50 0.01 88 1012.3
20260510135511 56 173 5.0 14.0 0.00 0.50 0.01 87 1012.3
20260510135004 56 182 5.0 11.0 0.00 0.51 0.01 89 1012.3
20260510134516 56 309 4.0 8.0 0.00 0.51 0.01 89 1012.2
20260510134004 56 198 3.0 11.0 0.00 0.51 0.01 89 1012.3
20260510133506 56 208 3.0 11.0 0.00 0.52 0.01 89 1012.4
20260510133020 56 214 5.0 12.0 0.00 0.52 0.01 89 1012.4
20260510132511 55 191 6.0 12.0 0.00 0.52 0.01 88 1012.4
20260510132009 55 221 7.0 12.0 0.00 0.52 0.01 88 1012.4
20260510131521 56 194 5.0 11.0 0.00 0.52 0.01 89 1012.6
20260510131010 55 187 5.0 12.0 0.00 0.52 0.01 90 1012.7
20260510130508 55 163 8.0 12.0 0.00 0.52 0.01 91 1012.5
20260510130026 55 162 7.0 12.0 0.00 0.52 0.01 91 1012.4
20260510125509 55 205 5.0 10.0 0.00 0.52 0.01 92 1012.4
20260510125013 55 219 3.0 10.0 0.00 0.54 0.01 92 1012.3
20260510124526 55 191 5.0 9.0 0.00 0.54 0.01 92 1012.3
20260510124011 54 210 3.0 10.0 0.00 0.54 0.01 93 1012.2
20260510123510 54 196 3.0 10.0 0.00 0.54 0.01 93 1012.4
20260510123018 54 189 4.0 9.0 0.00 0.54 0.01 93 1012.4
20260510122509 53 184 5.0 9.0 0.00 0.54 0.01 94 1012.4
20260510122015 53 198 5.0 11.0 0.00 0.54 0.01 94 1012.4
20260510121523 53 193 4.0 11.0 0.00 0.54 0.01 94 1012.3
20260510121012 53 227 4.0 8.0 0.00 0.54 0.01 94 1012.4
20260510120512 53 202 3.0 10.0 0.00 0.54 0.01 94 1012.5
20260510120025 53 210 4.0 10.0 0.00 0.54 0.01 94 1012.5
20260510115507 53 234 4.0 7.0 0.00 0.54 0.01 95 1012.5
20260510115010 53 215 3.0 6.0 0.00 0.54 0.01 94 1012.5
20260510114529 53 219 2.0 5.0 0.00 0.54 0.01 95 1012.5
20260510114009 53 213 2.0 5.0 0.00 0.54 0.01 95 1012.7
20260510113512 53 208 2.0 4.0 0.00 0.54 0.01 95 1012.6
20260510113027 52 221 1.0 3.0 0.00 0.54 0.01 95 1012.6
20260510112508 53 309 0.0 6.0 0.00 0.54 0.01 95 1012.5
20260510112013 52 265 1.0 6.0 0.00 0.54 0.01 95 1012.3
20260510111528 52 190 3.0 6.0 0.00 0.54 0.01 95 1012.1
20260510111007 52 215 3.0 7.0 0.00 0.54 0.01 95 1011.9
20260510110508 52 170 3.0 7.0 0.00 0.54 0.01 95 1011.9
20260510110034 52 185 3.0 9.0 0.00 0.54 0.01 95 1012.1
20260510105509 52 205 3.0 9.0 0.00 0.54 0.01 95 1012.0
20260510105009 52 161 1.0 7.0 0.00 0.54 0.01 95 1011.9
20260510104526 51 215 3.0 7.0 0.00 0.54 0.01 95 1011.9
20260510104005 51 221 3.0 7.0 0.00 0.54 0.01 96 1011.9
20260510103503 51 217 1.0 4.0 0.00 0.54 0.01 96 1011.7
20260510103010 51 249 0.0 6.0 0.00 0.54 0.01 96 1011.6
20260510102504 51 221 2.0 7.0 0.00 0.54 0.01 95 1011.5
20260510102007 51 229 3.0 9.0 0.00 0.54 0.01 95 1011.3
20260510101515 51 227 3.0 9.0 0.00 0.54 0.01 95 1011.3
20260510101004 51 245 4.0 10.0 0.00 0.54 0.01 96 1011.3
20260510100502 51 178 4.0 10.0 0.00 0.54 0.01 96 1011.0
20260510100004 51 214 6.0 11.0 0.00 0.54 0.01 96 1010.9
20260510095506 51 212 7.0 11.0 0.00 0.54 0.01 96 1010.8
20260510095004 51 218 6.0 11.0 0.00 0.54 0.01 96 1010.9
20260510094503 51 218 6.0 12.0 0.00 0.54 0.01 96 1010.9
20260510094003 51 213 6.0 12.0 0.00 0.54 0.01 96 1010.8
20260510093503 51 212 7.0 11.0 0.00 0.54 0.01 96 1010.7
20260510093009 51 215 7.0 12.0 0.00 0.54 0.01 96 1010.7
20260510092507 51 219 7.0 14.0 0.00 0.54 0.01 96 1010.8
20260510092004 51 211 7.0 14.0 0.00 0.54 0.01 96 1010.5
20260510091512 51 220 5.0 9.0 0.00 0.54 0.01 96 1010.4
20260510091005 51 219 4.0 9.0 0.00 0.54 0.01 96 1010.5
20260510090506 51 234 4.0 9.0 0.00 0.54 0.01 96 1010.8
20260510090020 50 225 4.0 7.0 0.00 0.54 0.01 96 1010.4
20260510085506 50 207 3.0 7.0 0.00 0.54 0.01 96 1010.7
20260510085003 50 221 1.0 4.0 0.00 0.54 0.01 96 1010.4
20260510084505 50 217 1.0 4.0 0.00 0.54 0.01 96 1010.8
20260510084003 50 187 1.0 5.0 0.00 0.54 0.01 96 1010.9
20260510083503 50 221 2.0 6.0 0.00 0.54 0.01 96 1011.1
20260510083004 50 218 3.0 6.0 0.00 0.54 0.01 96 1011.2
20260510082503 50 219 2.0 5.0 0.00 0.54 0.01 96 1011.1
20260510082005 50 212 2.0 5.0 0.00 0.54 0.01 96 1011.1
20260510081511 50 225 2.0 5.0 0.00 0.54 0.01 96 1011.3
20260510081005 50 216 3.0 5.0 0.00 0.54 0.01 96 1011.3
20260510080507 49 238 3.0 5.0 0.00 0.54 0.01 95 1011.2
20260510080014 49 225 2.0 4.0 0.00 0.54 0.01 95 1011.1
20260510075512 49 225 2.0 4.0 0.00 0.54 0.01 96 1011.0
20260510075007 50 196 1.0 6.0 0.00 0.54 0.01 96 1011.0
20260510074520 50 221 3.0 6.0 0.00 0.54 0.01 96 1011.2
20260510074008 49 219 3.0 6.0 0.00 0.54 0.01 95 1011.2
20260510073515 49 219 3.0 6.0 0.00 0.54 0.01 96 1011.1
20260510073005 49 215 0.0 3.0 0.00 0.54 0.01 96 1011.0
20260510072503 49 67 0.0 3.0 0.00 0.54 0.01 96 1011.0
20260510072003 49 9 1.0 3.0 0.00 0.54 0.01 96 1010.9
20260510071508 48 22 2.0 3.0 0.00 0.54 0.01 95 1010.9
20260510071003 48 41 1.0 4.0 0.00 0.54 0.01 95 1010.7
20260510070503 49 193 2.0 4.0 0.00 0.54 0.01 95 1010.7
20260510070023 49 229 3.0 4.0 0.00 0.54 0.01 95 1010.7
20260510065504 49 232 2.0 3.0 0.00 0.54 0.01 95 1010.7
20260510065005 49 234 1.0 3.0 0.00 0.54 0.01 95 1010.7
20260510064524 49 232 2.0 3.0 0.00 0.54 0.01 95 1010.9
20260510064004 49 221 1.0 3.0 0.00 0.54 0.01 95 1010.9
20260510063508 49 137 0.0 3.0 0.00 0.54 0.01 95 1010.9
20260510063022 49 153 0.0 3.0 0.00 0.54 0.01 95 1011.0
20260510062510 49 22 1.0 4.0 0.00 0.54 0.01 95 1011.1
20260510062010 49 34 2.0 4.0 0.00 0.54 0.01 95 1011.1
20260510061526 49 9 1.0 3.0 0.00 0.54 0.01 95 1011.1
20260510061001 49 110 2.0 3.0 0.00 0.54 0.01 95 1011.0
20260510060505 49 265 1.0 3.0 0.00 0.54 0.01 95 1011.1
20260510060012 49 217 1.0 3.0 0.00 0.54 0.01 95 1011.1
20260510055504 49 221 1.0 3.0 0.00 0.54 0.01 95 1011.2
20260510055003 49 265 2.0 3.0 0.00 0.54 0.01 95 1011.1
20260510054522 49 205 1.0 3.0 0.00 0.54 0.01 95 1011.1
20260510054007 49 265 1.0 3.0 0.00 0.54 0.01 95 1011.3
20260510053505 49 196 1.0 3.0 0.00 0.54 0.01 95 1011.2
20260510053019 49 146 1.0 3.0 0.00 0.54 0.01 95 1011.2
20260510052507 49 119 0.0 3.0 0.00 0.54 0.01 95 1011.3
20260510052011 49 59 0.0 3.0 0.00 0.54 0.01 95 1011.4
20260510051536 49 83 2.0 3.0 0.01 0.54 0.01 95 1011.3
20260510051013 49 93 0.0 3.0 0.01 0.54 0.01 95 1011.2
20260510050509 49 51 0.0 3.0 0.01 0.54 0.01 95 1011.3
20260510050026 49 319 1.0 3.0 0.01 0.54 0.01 95 1011.2
20260510045504 49 325 0.0 3.0 0.01 0.54 0.01 95 1011.2
20260510045005 49 309 0.0 3.0 0.01 0.54 0.01 95 1011.3
20260510044520 49 64 1.0 3.0 0.01 0.54 0.01 95 1011.3
20260510044004 49 342 0.0 2.0 0.01 0.54 0.01 95 1011.3
20260510043507 49 300 1.0 2.0 0.01 0.54 0.01 95 1011.4
20260510043017 49 309 0.0 2.0 0.01 0.54 0.01 95 1011.4
20260510042507 49 309 0.0 2.0 0.01 0.54 0.01 95 1011.4
20260510042014 49 291 1.0 2.0 0.01 0.54 0.01 95 1011.4
20260510041522 49 309 0.0 2.0 0.00 0.52 0.00 95 1011.4
20260510041007 49 221 0.0 2.0 0.00 0.52 0.00 95 1011.5
20260510040509 49 238 0.0 2.0 0.00 0.52 0.00 95 1011.5
20260510040026 49 137 1.0 2.0 0.00 0.52 0.00 95 1011.5
20260510035508 49 146 1.0 2.0 0.00 0.52 0.52 95 1011.5
20260510035010 49 51 0.0 2.0 0.00 0.52 0.52 95 1011.5
20260510034527 49 309 0.0 2.0 0.00 0.52 0.52 95 1011.6
20260510034009 49 76 1.0 2.0 0.00 0.52 0.52 95 1011.4
20260510033511 49 93 0.0 2.0 0.00 0.52 0.52 95 1011.4
20260510033019 49 238 0.0 3.0 0.00 0.52 0.52 95 1011.4
20260510032504 49 67 1.0 4.0 0.00 0.52 0.52 95 1011.4
20260510032007 49 34 0.0 4.0 0.00 0.52 0.52 95 1011.4
20260510031519 49 51 2.0 4.0 0.00 0.52 0.52 95 1011.4
20260510031006 49 76 1.0 3.0 0.00 0.52 0.52 95 1011.3
20260510030507 49 9 0.0 3.0 0.00 0.52 0.52 95 1011.4
20260510030023 49 9 1.0 3.0 0.00 0.52 0.52 95 1011.4
20260510025510 49 34 1.0 3.0 0.00 0.52 0.52 95 1011.4
20260510025006 49 22 0.0 3.0 0.00 0.52 0.52 95 1011.4
20260510024526 49 298 1.0 3.0 0.00 0.52 0.52 95 1011.5
20260510024010 49 26 1.0 3.0 0.00 0.52 0.52 95 1011.6
20260510023509 49 61 1.0 2.0 0.00 0.52 0.52 95 1011.6
20260510023026 48 26 0.0 2.0 0.00 0.52 0.52 95 1011.7
20260510022511 49 93 0.0 3.0 0.00 0.52 0.52 95 1011.8
20260510022012 48 108 1.0 3.0 0.00 0.52 0.52 95 1011.9
20260510021516 49 212 0.0 3.0 0.00 0.52 0.52 95 1011.8
20260510021007 49 221 1.0 4.0 0.00 0.52 0.52 95 1011.9
20260510020506 49 232 1.0 4.0 0.00 0.52 0.52 95 1011.9
20260510020022 49 217 2.0 3.0 0.00 0.52 0.52 95 1011.9
20260510015507 49 232 1.0 4.0 0.00 0.52 0.52 95 1011.9
20260510015006 49 234 2.0 4.0 0.00 0.52 0.52 95 1012.0
20260510014525 49 215 1.0 3.0 0.00 0.52 0.52 95 1011.9
20260510014005 49 221 0.0 2.0 0.00 0.52 0.52 95 1011.9
20260510013502 49 319 1.0 2.0 0.00 0.52 0.52 95 1011.9
20260510013008 49 9 0.0 2.0 0.00 0.52 0.52 95 1011.9
20260510012502 49 221 0.0 2.0 0.00 0.52 0.52 95 1011.9
20260510012002 49 247 1.0 2.0 0.00 0.52 0.52 95 1011.9
20260510011528 49 51 0.0 1.0 0.00 0.52 0.52 95 1011.9
20260510011007 49 51 0.0 2.0 0.00 0.52 0.52 95 1011.8
20260510010507 49 51 0.0 2.0 0.00 0.52 0.52 95 1011.8
20260510010017 49 93 0.0 2.0 0.00 0.52 0.52 95 1011.7
20260510005507 49 51 0.0 2.0 0.00 0.52 0.52 95 1011.8
20260510005006 49 34 0.0 3.0 0.00 0.52 0.52 94 1011.8
20260510004522 49 300 1.0 4.0 0.00 0.52 0.52 94 1011.6
20260510004001 49 34 1.0 4.0 0.00 0.52 0.52 94 1011.5
20260510003504 49 22 0.0 3.0 0.00 0.52 0.52 94 1011.5
20260510003009 49 309 1.0 4.0 0.00 0.52 0.52 94 1011.4
20260510002502 49 67 1.0 4.0 0.00 0.52 0.52 94 1011.3
20260510002006 49 48 2.0 4.0 0.00 0.52 0.52 94 1011.3
20260510001512 49 34 2.0 4.0 0.00 0.52 0.52 94 1011.3
20260510001003 49 26 2.0 4.0 0.00 0.52 0.52 94 1011.3
20260510000506 49 56 1.0 4.0 0.00 0.52 0.52 94 1011.2
20260510000018 49 61 0.0 2.0 0.00 0.52 0.52 94 1011.2
20260509235513 49 137 0.0 2.0 0.00 0.52 0.52 94 1011.3
20260509235007 49 205 0.0 2.0 0.00 0.52 0.52 94 1011.3
20260509234520 49 221 0.0 4.0 0.00 0.52 0.52 94 1011.2
20260509234007 49 193 1.0 4.0 0.00 0.52 0.52 94 1011.2
20260509233506 49 225 2.0 3.0 0.00 0.52 0.52 94 1011.2
20260509233024 49 178 1.0 3.0 0.00 0.52 0.52 94 1011.1
20260509232508 49 190 1.0 4.0 0.00 0.52 0.52 94 1011.2
20260509232003 49 146 1.0 4.0 0.00 0.52 0.52 94 1011.2
20260509231509 49 219 2.0 4.0 0.00 0.52 0.52 94 1011.2
20260509231003 49 137 1.0 4.0 0.00 0.52 0.52 94 1011.1
20260509230504 49 236 1.0 3.0 0.00 0.52 0.52 94 1011.1
20260509230012 49 26 0.0 4.0 0.00 0.52 0.52 94 1011.2
20260509225507 49 265 0.0 4.0 0.00 0.52 0.52 94 1011.2
20260509225007 49 131 2.0 3.0 0.00 0.52 0.52 94 1011.2
20260509224520 49 153 1.0 3.0 0.00 0.52 0.52 94 1011.2
20260509224007 49 108 1.0 4.0 0.00 0.52 0.52 94 1011.2
20260509223509 49 9 0.0 4.0 0.00 0.52 0.52 94 1011.3
20260509223023 49 26 1.0 3.0 0.00 0.52 0.52 94 1011.1
20260509222506 49 34 1.0 3.0 0.00 0.52 0.52 94 1011.0
20260509222010 49 265 0.0 2.0 0.00 0.52 0.52 94 1010.9
20260509221537 48 111 0.0 3.0 0.00 0.52 0.52 94 1010.9
20260509221008 48 61 1.0 4.0 0.00 0.52 0.52 94 1011.1
20260509220502 48 44 2.0 4.0 0.00 0.52 0.52 94 1011.2
20260509220010 48 47 2.0 4.0 0.00 0.52 0.52 94 1011.2
20260509215505 48 57 1.0 4.0 0.01 0.52 0.52 94 1011.3
20260509215006 48 48 2.0 4.0 0.01 0.52 0.52 94 1011.3
20260509214516 48 19 1.0 4.0 0.01 0.52 0.52 94 1011.3
20260509214006 48 119 0.0 4.0 0.01 0.52 0.52 94 1011.4
20260509213508 48 129 0.0 3.0 0.01 0.52 0.52 94 1011.5
20260509213020 48 232 1.0 3.0 0.02 0.52 0.52 94 1011.5
20260509212513 48 9 1.0 4.0 0.02 0.52 0.52 94 1011.6
20260509212014 48 178 2.0 5.0 0.02 0.52 0.52 94 1011.5
20260509211521 48 250 1.0 7.0 0.03 0.52 0.52 94 1011.7
20260509211007 48 9 2.0 7.0 0.03 0.52 0.52 94 1011.6
20260509210506 48 178 2.0 5.0 0.03 0.52 0.52 94 1011.8
20260509210025 48 126 1.0 4.0 0.04 0.52 0.52 94 1011.8
20260509205510 48 221 0.0 4.0 0.04 0.52 0.52 94 1011.9